Regional Weather Roundup
Issued by NWS Memphis, TN

Home | Current Version | Previous Version | Text Only | Print | Product List | Glossary On
Versions: 1 2 3 4 5 6 7 8 9 10 11 12 13 14 15 16 17 18 19 20 21 22 23 24 25 26 27 28 29 30 31 32 33 34 35 36 37 38 39 40 41 42 43 44 45 46 47 48 49 50
000
ASUS44 KMEG 211510
RWRMEG
MEMPHIS CWA HOURLY WEATHER ROUNDUP
NATIONAL WEATHER SERVICE MEMPHIS TN
1000 AM CDT SAT APR 21 2018

...WEST TENNESSEE...

CITY           SKY/WX    TMP DP  RH WIND       PRES   REMARKS
MEMPHIS INTL   FAIR      65  40  39 SE10      30.25S
NWS MEMPHIS      N/A     65 N/A N/A MISG        N/A
JACKSON        FAIR      63  35  35 VRB6      30.29S
COVINGTON      SUNNY     61  37  41 SE8       30.28S
SOMERVILLE     SUNNY     63  37  39 VRB7      30.25S
BOLIVAR        SUNNY     63  37  39 SE5G14    30.28R
LEXINGTON      SUNNY     63  34  34 E7        30.29F
SELMER         SUNNY     63  36  36 SE9       30.28R
DYERSBURG      FAIR      64  39  39 VRB6      30.29S
UNION CITY     SUNNY     63  37  39 SE9       30.28F
PARIS          SUNNY     63  36  36 E6        30.31R
HUNTINGDON     SUNNY     63  36  36 SE8       30.29S


...EASTERN ARKANSAS...

CITY           SKY/WX    TMP DP  RH WIND       PRES   REMARKS
JONESBORO      FAIR      60  40  47 E12       30.26S
WEST MEMPHIS   FAIR      65  42  43 SE9       30.24S
BATESVILLE     CLOUDY    58  38  47 E10       30.22F
WALNUT RIDGE   FAIR      62  37  39 E7        30.26F
BLYTHEVILLE    FAIR      64  38  38 SE6       30.27F
SEARCY         FAIR      61  42  49 E9        30.20F
STUTTGART      FAIR      63  44  50 SE15      30.20F
PINE BLUFF     FAIR      63  45  51 E13       30.18F
MONTICELLO     FAIR      62  47  57 E12       30.17F


...NORTH MISSISSIPPI...

CITY           SKY/WX    TMP DP  RH WIND       PRES   REMARKS
TUPELO         FAIR      66  38  35 E10G21    30.25S
OXFORD         FAIR      63  39  42 VRB7G16   30.26R
BATESVILLE       N/A    N/A N/A N/A MISG        N/A
OLIVE BRANCH   PTSUNNY   63  39  42 SE6       30.25S
TUNICA           N/A     64  43  45 SE6       30.25S
CLARKSDALE     SUNNY     66  45  45 SE12      30.23S
CORINTH        FAIR      64  37  36 SE8       30.27R
GREENWOOD      FAIR      68  44  42 SE10      30.21R
COLUMBUS       FAIR      67  46  46 SE15      30.23F
STARKVILLE     FAIR      64  46  52 SE10      30.25S
GOLDEN TRIANGL FAIR      66  45  46 SE12      30.24F


...SOUTHEAST MISSOURI...

CITY           SKY/WX    TMP DP  RH WIND       PRES   REMARKS
KENNETT        FAIR      63  36  36 SE7       30.26S
MALDEN         FAIR      61  34  36 E6        30.29S
WEST PLAINS    MOSUNNY   57  31  37 SE12      30.23F
POPLAR BLUFF   FAIR      58  36  43 E8        30.28F
CAPE GIRARDEAU FAIR      59  36  42 E8        30.30S


...NORTHWEST ALABAMA...

CITY           SKY/WX    TMP DP  RH WIND       PRES   REMARKS
MUSCLE SHOALS  FAIR      62  39  42 SE7       30.30F


...MIDDLE TENNESSEE...

CITY           SKY/WX    TMP DP  RH WIND       PRES   REMARKS
NASHVILLE      FAIR      62  33  33 CALM      30.34R
CLARKSVILLE    FAIR      58  31  35 CALM      30.33S
COLUMBIA       SUNNY     59  41  51 CALM      30.30F
LEWISBURG      SUNNY     63  37  39 CALM      30.31S


...WESTERN KENTUCKY...

CITY           SKY/WX    TMP DP  RH WIND       PRES   REMARKS
PADUCAH        FAIR      59  35  40 E7        30.30F
FORT CAMPBELL  FAIR      59  32  36 E5        30.32F


...CENTRAL ARKANSAS...

CITY           SKY/WX    TMP DP  RH WIND       PRES   REMARKS
LITTLE ROCK    CLOUDY    57  43  59 E10       30.19F


SKY/WX REPORTED AS FAIR MEANS FEW OR NO CLOUDS BELOW
12 THOUSAND FEET.




USA.gov is the U.S. government's official web portal to all federal, state and local government web resources and services.